TimeEDT,TemperatureF,Dew PointF,Humidity,Sea Level PressureIn,VisibilityMPH,Wind Direction,Wind SpeedMPH,Gust SpeedMPH,PrecipitationIn,Events,Conditions,WindDirDegrees,DateUTC
12:55 AM,42.1,14.0,32,30.26,10.0,NE,8.1,-,N/A,,Scattered Clouds,50,2013-04-04 04:55:00
1:55 AM,41.0,14.5,34,30.25,10.0,NE,8.1,-,N/A,,Scattered Clouds,50,2013-04-04 05:55:00
2:55 AM,40.3,14.9,36,30.23,10.0,ENE,9.2,-,N/A,,Mostly Cloudy,70,2013-04-04 06:55:00
3:55 AM,39.7,14.9,36,30.19,10.0,ENE,10.4,-,N/A,,Clear,70,2013-04-04 07:55:00
4:55 AM,39.4,14.7,37,30.18,10.0,ENE,10.4,-,N/A,,Partly Cloudy,60,2013-04-04 08:55:00
5:55 AM,39.0,14.9,37,30.17,10.0,ENE,10.4,-,N/A,,Clear,60,2013-04-04 09:55:00
6:55 AM,38.3,14.9,39,30.16,10.0,NE,8.1,-,N/A,,Overcast,50,2013-04-04 10:55:00
7:55 AM,38.1,15.8,40,30.17,10.0,NE,9.2,-,N/A,,Partly Cloudy,50,2013-04-04 11:55:00
8:55 AM,39.2,16.2,39,30.16,10.0,NE,11.5,-,N/A,,Mostly Cloudy,50,2013-04-04 12:55:00
9:55 AM,41.0,16.7,37,30.14,10.0,NE,9.2,-,N/A,,Overcast,50,2013-04-04 13:55:00
10:55 AM,43.2,17.2,35,30.14,10.0,ENE,9.2,-,N/A,,Overcast,60,2013-04-04 14:55:00
11:55 AM,45.5,18.7,34,30.13,10.0,East,9.2,-,N/A,,Overcast,90,2013-04-04 15:55:00
12:55 PM,47.7,18.7,32,30.12,10.0,ENE,3.5,-,N/A,,Overcast,70,2013-04-04 16:55:00
1:55 PM,49.1,19.6,31,30.09,10.0,Calm,Calm,-,N/A,,Overcast,0,2013-04-04 17:55:00
2:55 PM,50.2,20.3,31,30.07,10.0,Variable,3.5,-,N/A,,Partly Cloudy,0,2013-04-04 18:55:00
3:55 PM,50.9,20.8,31,30.05,10.0,Calm,Calm,-,N/A,,Partly Cloudy,0,2013-04-04 19:55:00
4:55 PM,51.8,21.6,31,30.03,10.0,Calm,Calm,-,N/A,,Scattered Clouds,0,2013-04-04 20:55:00
5:55 PM,52.2,22.6,32,30.03,10.0,South,3.5,-,N/A,,Mostly Cloudy,180,2013-04-04 21:55:00
6:55 PM,51.8,25.3,36,30.03,10.0,SSE,5.8,-,N/A,,Overcast,150,2013-04-04 22:55:00
7:55 PM,49.8,27.9,43,30.02,10.0,SW,3.5,-,N/A,,Overcast,220,2013-04-04 23:55:00
8:55 PM,48.0,27.9,46,30.02,10.0,Variable,3.5,-,N/A,,Overcast,0,2013-04-05 00:55:00
9:55 PM,48.4,26.4,42,30.03,10.0,Calm,Calm,-,N/A,,Overcast,0,2013-04-05 01:55:00
10:55 PM,44.4,28.0,53,30.03,10.0,Calm,Calm,-,N/A,,Partly Cloudy,0,2013-04-05 02:55:00
11:55 PM,39.4,26.8,61,30.02,10.0,Calm,Calm,-,N/A,,Clear,0,2013-04-05 03:55:00